This is the latest recevied weather packets stored in our database for station/object HB9BB-10. If no packets are shown the sender has not sent any weather packets the latest 10 day(s).
| Time | Temp. | Humidity | Pressure | Rain* | Wind** | Luminosity | Snow |
|---|---|---|---|---|---|---|---|
| 1788012172 | 25.56° C | 32% | 1034.4 hPa | - | - | - | - |
| 1788010792 | 25.56° C | 32% | 1034.4 hPa | - | - | - | - |
| 1788009412 | 25° C | 32% | 1034.4 hPa | - | - | - | - |
| 1788008031 | 25° C | 31% | 1034.4 hPa | - | - | - | - |
| 1788006651 | 25° C | 31% | 1034.6 hPa | - | - | - | - |
| 1788005271 | 25° C | 32% | 1034.8 hPa | - | - | - | - |
| 1788003891 | 25° C | 32% | 1035 hPa | - | - | - | - |
| 1788002511 | 25° C | 32% | 1035 hPa | - | - | - | - |
| 1788001130 | 25° C | 31% | 1035.2 hPa | - | - | - | - |
| 1787999750 | 24.44° C | 31% | 1035.3 hPa | - | - | - | - |
| 1787998370 | 24.44° C | 31% | 1035.2 hPa | - | - | - | - |
| 1787996990 | 24.44° C | 31% | 1035.4 hPa | - | - | - | - |
| 1787995609 | 23.89° C | 32% | 1035.3 hPa | - | - | - | - |
| 1787994229 | 23.89° C | 31% | 1035.4 hPa | - | - | - | - |
| 1787992849 | 23.89° C | 31% | 1035.3 hPa | - | - | - | - |
| 1787991469 | 23.33° C | 31% | 1035.2 hPa | - | - | - | - |
| 1787990089 | 23.33° C | 31% | 1035.1 hPa | - | - | - | - |
| 1787988709 | 22.78° C | 31% | 1035.2 hPa | - | - | - | - |
| 1787987328 | 22.22° C | 31% | 1035.2 hPa | - | - | - | - |
| 1787985948 | 21.67° C | 31% | 1035.2 hPa | - | - | - | - |
| 1787984568 | 21.11° C | 31% | 1035.2 hPa | - | - | - | - |
| 1787983188 | 20.56° C | 31% | 1035.2 hPa | - | - | - | - |
| 1787981808 | 20.56° C | 31% | 1035.2 hPa | - | - | - | - |
| 1787980428 | 20° C | 31% | 1035.2 hPa | - | - | - | - |
| 1787979047 | 20.56° C | 31% | 1035 hPa | - | - | - | - |
* Rain since midnight (hover to see other rain measurements)
** Current wind speed in m/s (hover to see current wind gust speed)